Year,Month,Day,Hour,Minute,Value (Times are PST for temperature in C)
2014,07,27,00,00,15.00
2014,07,27,00,01,15.00
2014,07,27,00,02,15.00
2014,07,27,00,03,15.00
2014,07,27,00,04,15.00
2014,07,27,00,05,15.00
2014,07,27,00,06,15.00
2014,07,27,00,07,15.00
2014,07,27,00,08,14.90
2014,07,27,00,09,14.90
2014,07,27,00,10,14.80
2014,07,27,00,11,14.80
2014,07,27,00,12,14.80
2014,07,27,00,13,14.80
2014,07,27,00,14,14.80
2014,07,27,00,15,14.80
2014,07,27,00,16,14.70
2014,07,27,00,17,14.70
2014,07,27,00,18,14.70
2014,07,27,00,19,14.70
2014,07,27,00,20,14.70
2014,07,27,00,21,14.70
2014,07,27,00,22,14.60
2014,07,27,00,23,14.60
2014,07,27,00,24,14.60
2014,07,27,00,25,14.60
2014,07,27,00,26,14.60
2014,07,27,00,27,14.60
2014,07,27,00,28,14.60
2014,07,27,00,29,14.50
2014,07,27,00,30,14.50
2014,07,27,00,31,14.50
2014,07,27,00,32,14.40
2014,07,27,00,33,14.40
2014,07,27,00,34,14.40
2014,07,27,00,35,14.40
2014,07,27,00,36,14.40
2014,07,27,00,37,14.40
2014,07,27,00,38,14.40
2014,07,27,00,39,14.40
2014,07,27,00,40,14.40
2014,07,27,00,41,14.40
2014,07,27,00,42,14.40
2014,07,27,00,43,14.40
2014,07,27,00,44,14.40
2014,07,27,00,45,14.50
2014,07,27,00,46,14.50
2014,07,27,00,47,14.40
2014,07,27,00,48,14.50
2014,07,27,00,49,14.40
2014,07,27,00,50,14.40
2014,07,27,00,51,14.40
2014,07,27,00,52,14.40
2014,07,27,00,53,14.40
2014,07,27,00,54,14.40
2014,07,27,00,55,14.40
2014,07,27,00,56,14.40
2014,07,27,00,57,14.40
2014,07,27,00,58,14.30
2014,07,27,00,59,14.30
2014,07,27,01,00,14.30
2014,07,27,01,01,14.30
2014,07,27,01,02,14.30
2014,07,27,01,03,14.30
2014,07,27,01,04,14.30
2014,07,27,01,05,14.30
2014,07,27,01,06,14.30
2014,07,27,01,07,14.30
2014,07,27,01,08,14.30
2014,07,27,01,09,14.30
2014,07,27,01,10,14.30
2014,07,27,01,11,14.30
2014,07,27,01,12,14.30
2014,07,27,01,13,14.20
2014,07,27,01,14,14.20
2014,07,27,01,15,14.20
2014,07,27,01,16,14.20
2014,07,27,01,17,14.20
2014,07,27,01,18,14.10
2014,07,27,01,19,14.10
2014,07,27,01,20,14.10
2014,07,27,01,21,14.00
2014,07,27,01,22,14.00
2014,07,27,01,23,13.90
2014,07,27,01,24,13.90
2014,07,27,01,25,13.90
2014,07,27,01,26,13.90
2014,07,27,01,27,13.90
2014,07,27,01,28,13.90
2014,07,27,01,29,13.90
2014,07,27,01,30,13.90
2014,07,27,01,31,13.80
2014,07,27,01,32,13.80
2014,07,27,01,33,13.80
2014,07,27,01,34,13.80
2014,07,27,01,35,13.80
2014,07,27,01,36,13.80
2014,07,27,01,37,13.80
2014,07,27,01,38,13.80
2014,07,27,01,39,13.80
2014,07,27,01,40,13.80
2014,07,27,01,41,13.80
2014,07,27,01,42,13.80
2014,07,27,01,43,13.80
2014,07,27,01,44,13.70
2014,07,27,01,45,13.70
2014,07,27,01,46,13.70
2014,07,27,01,47,13.70
2014,07,27,01,48,13.70
2014,07,27,01,49,13.70
2014,07,27,01,50,13.70
2014,07,27,01,51,13.60
2014,07,27,01,52,13.60
2014,07,27,01,53,13.60
2014,07,27,01,54,13.60
2014,07,27,01,55,13.60
2014,07,27,01,56,13.60
2014,07,27,01,57,13.50
2014,07,27,01,58,13.50
2014,07,27,01,59,13.50
2014,07,27,02,00,13.50
2014,07,27,02,01,13.40
2014,07,27,02,02,13.40
2014,07,27,02,03,13.40
2014,07,27,02,04,13.40
2014,07,27,02,05,13.40
2014,07,27,02,06,13.30
2014,07,27,02,07,13.30
2014,07,27,02,08,13.30
2014,07,27,02,09,13.30
2014,07,27,02,10,13.30
2014,07,27,02,11,13.30
2014,07,27,02,12,13.30
2014,07,27,02,13,13.30
2014,07,27,02,14,13.30
2014,07,27,02,15,13.30
2014,07,27,02,16,13.30
2014,07,27,02,17,13.30
2014,07,27,02,18,13.30
2014,07,27,02,19,13.30
2014,07,27,02,20,13.30
2014,07,27,02,21,13.30
2014,07,27,02,22,13.30
2014,07,27,02,23,13.30
2014,07,27,02,24,13.30
2014,07,27,02,25,13.30
2014,07,27,02,26,13.30
2014,07,27,02,27,13.30
2014,07,27,02,28,13.20
2014,07,27,02,29,13.20
2014,07,27,02,30,13.20
2014,07,27,02,31,13.20
2014,07,27,02,32,13.20
2014,07,27,02,33,13.20
2014,07,27,02,34,13.20
2014,07,27,02,35,13.20
2014,07,27,02,36,13.20
2014,07,27,02,37,13.10
2014,07,27,02,38,13.10
2014,07,27,02,39,13.10
2014,07,27,02,40,13.10
2014,07,27,02,41,13.10
2014,07,27,02,42,13.00
2014,07,27,02,43,13.00
2014,07,27,02,44,13.00
2014,07,27,02,45,12.90
2014,07,27,02,46,12.90
2014,07,27,02,47,12.90
2014,07,27,02,48,12.90
2014,07,27,02,49,12.90
2014,07,27,02,50,12.90
2014,07,27,02,51,12.90
2014,07,27,02,52,12.80
2014,07,27,02,53,12.80
2014,07,27,02,54,12.80
2014,07,27,02,55,12.80
2014,07,27,02,56,12.80
2014,07,27,02,57,12.80
2014,07,27,02,58,12.70
2014,07,27,02,59,12.70
2014,07,27,03,00,12.70
2014,07,27,03,01,12.70
2014,07,27,03,02,12.70
2014,07,27,03,03,12.70
2014,07,27,03,04,12.70
2014,07,27,03,05,12.70
2014,07,27,03,06,12.70
2014,07,27,03,07,12.70
2014,07,27,03,08,12.70
2014,07,27,03,09,12.60
2014,07,27,03,10,12.60
2014,07,27,03,11,12.60
2014,07,27,03,12,12.60
2014,07,27,03,13,12.60
2014,07,27,03,14,12.60
2014,07,27,03,15,12.60
2014,07,27,03,16,12.60
2014,07,27,03,17,12.60
2014,07,27,03,18,12.60
2014,07,27,03,19,12.60
2014,07,27,03,20,12.60
2014,07,27,03,21,12.60
2014,07,27,03,22,12.60
2014,07,27,03,23,12.60
2014,07,27,03,24,12.60
2014,07,27,03,25,12.50
2014,07,27,03,26,12.50
2014,07,27,03,27,12.50
2014,07,27,03,28,12.50
2014,07,27,03,29,12.50
2014,07,27,03,30,12.50
2014,07,27,03,31,12.50
2014,07,27,03,32,12.50
2014,07,27,03,33,12.50
2014,07,27,03,34,12.50
2014,07,27,03,35,12.50
2014,07,27,03,36,12.60
2014,07,27,03,37,12.60
2014,07,27,03,38,12.60
2014,07,27,03,39,12.70
2014,07,27,03,40,12.70
2014,07,27,03,41,12.80
2014,07,27,03,42,12.80
2014,07,27,03,43,12.80
2014,07,27,03,44,12.80
2014,07,27,03,45,12.80
2014,07,27,03,46,12.80
2014,07,27,03,47,12.80
2014,07,27,03,48,12.80
2014,07,27,03,49,12.80
2014,07,27,03,50,12.80
2014,07,27,03,51,12.80
2014,07,27,03,52,12.70
2014,07,27,03,53,12.70
2014,07,27,03,54,12.70
2014,07,27,03,55,12.70
2014,07,27,03,56,12.70
2014,07,27,03,57,12.60
2014,07,27,03,58,12.60
2014,07,27,03,59,12.60
2014,07,27,04,00,12.60
2014,07,27,04,01,12.60
2014,07,27,04,02,12.60
2014,07,27,04,03,12.50
2014,07,27,04,04,12.50
2014,07,27,04,05,12.50
2014,07,27,04,06,12.50
2014,07,27,04,07,12.40
2014,07,27,04,08,12.40
2014,07,27,04,09,12.40
2014,07,27,04,10,12.40
2014,07,27,04,11,12.40
2014,07,27,04,12,12.40
2014,07,27,04,13,12.30
2014,07,27,04,14,12.30
2014,07,27,04,15,12.30
2014,07,27,04,16,12.30
2014,07,27,04,17,12.20
2014,07,27,04,18,12.20
2014,07,27,04,19,12.20
2014,07,27,04,20,12.20
2014,07,27,04,21,12.20
2014,07,27,04,22,12.20
2014,07,27,04,23,12.10
2014,07,27,04,24,12.10
2014,07,27,04,25,12.10
2014,07,27,04,26,12.10
2014,07,27,04,27,12.10
2014,07,27,04,28,12.10
2014,07,27,04,29,12.10
2014,07,27,04,30,12.10
2014,07,27,04,31,12.10
2014,07,27,04,32,12.00
2014,07,27,04,33,12.00
2014,07,27,04,34,12.00
2014,07,27,04,35,12.00
2014,07,27,04,36,12.00
2014,07,27,04,37,12.00
2014,07,27,04,38,12.00
2014,07,27,04,39,12.00
2014,07,27,04,40,12.00
2014,07,27,04,41,12.00
2014,07,27,04,42,12.00
2014,07,27,04,43,12.00
2014,07,27,04,44,12.00
2014,07,27,04,45,12.10
2014,07,27,04,46,12.10
2014,07,27,04,47,12.10
2014,07,27,04,48,12.10
2014,07,27,04,49,12.10
2014,07,27,04,50,12.10
2014,07,27,04,51,12.10
2014,07,27,04,52,12.10
2014,07,27,04,53,12.10
2014,07,27,04,54,12.10
2014,07,27,04,55,12.10
2014,07,27,04,56,12.10
2014,07,27,04,57,12.00
2014,07,27,04,58,12.10
2014,07,27,04,59,12.00
2014,07,27,05,00,12.10
2014,07,27,05,01,12.10
2014,07,27,05,02,12.00
2014,07,27,05,03,12.00
2014,07,27,05,04,12.00
2014,07,27,05,05,12.00
2014,07,27,05,06,12.00
2014,07,27,05,07,12.00
2014,07,27,05,08,12.00
2014,07,27,05,09,12.00
2014,07,27,05,10,12.00
2014,07,27,05,11,12.10
2014,07,27,05,12,12.10
2014,07,27,05,13,12.10
2014,07,27,05,14,12.10
2014,07,27,05,15,12.10
2014,07,27,05,16,12.00
2014,07,27,05,17,12.00
2014,07,27,05,18,12.00
2014,07,27,05,19,12.00
2014,07,27,05,20,11.90
2014,07,27,05,21,11.90
2014,07,27,05,22,11.90
2014,07,27,05,23,11.90
2014,07,27,05,24,11.90
2014,07,27,05,25,11.90
2014,07,27,05,26,11.90
2014,07,27,05,27,11.80
2014,07,27,05,28,11.80
2014,07,27,05,29,11.80
2014,07,27,05,30,11.80
2014,07,27,05,31,11.80
2014,07,27,05,32,11.80
2014,07,27,05,33,11.80
2014,07,27,05,34,11.80
2014,07,27,05,35,11.80
2014,07,27,05,36,11.80
2014,07,27,05,37,11.80
2014,07,27,05,38,11.70
2014,07,27,05,39,11.70
2014,07,27,05,40,11.70
2014,07,27,05,41,11.70
2014,07,27,05,42,11.70
2014,07,27,05,43,11.70
2014,07,27,05,44,11.70
2014,07,27,05,45,11.70
2014,07,27,05,46,11.70
2014,07,27,05,47,11.70
2014,07,27,05,48,11.60
2014,07,27,05,49,11.70
2014,07,27,05,50,11.70
2014,07,27,05,51,11.70
2014,07,27,05,52,11.70
2014,07,27,05,53,11.70
2014,07,27,05,54,11.70
2014,07,27,05,55,11.70
2014,07,27,05,56,11.70
2014,07,27,05,57,11.70
2014,07,27,05,58,11.70
2014,07,27,05,59,11.70
2014,07,27,06,00,11.70
2014,07,27,06,01,11.70
2014,07,27,06,02,11.60
2014,07,27,06,03,11.60
2014,07,27,06,04,11.60
2014,07,27,06,05,11.60
2014,07,27,06,06,11.60
2014,07,27,06,07,11.60
2014,07,27,06,08,11.60
2014,07,27,06,09,11.60
2014,07,27,06,10,11.60
2014,07,27,06,11,11.60
2014,07,27,06,12,11.60
2014,07,27,06,13,11.60
2014,07,27,06,14,11.60
2014,07,27,06,15,11.60
2014,07,27,06,16,11.60
2014,07,27,06,17,11.60
2014,07,27,06,18,11.60
2014,07,27,06,19,11.60
2014,07,27,06,20,11.60
2014,07,27,06,21,11.60
2014,07,27,06,22,11.60
2014,07,27,06,23,11.60
2014,07,27,06,24,11.60
2014,07,27,06,25,11.60
2014,07,27,06,26,11.60
2014,07,27,06,27,11.70
2014,07,27,06,28,11.70
2014,07,27,06,29,11.70
2014,07,27,06,30,11.70
2014,07,27,06,31,11.70
2014,07,27,06,32,11.70
2014,07,27,06,33,11.70
2014,07,27,06,34,11.70
2014,07,27,06,35,11.70
2014,07,27,06,36,11.70
2014,07,27,06,37,11.70
2014,07,27,06,38,11.70
2014,07,27,06,39,11.70
2014,07,27,06,40,11.80
2014,07,27,06,41,11.80
2014,07,27,06,42,11.80
2014,07,27,06,43,11.90
2014,07,27,06,44,11.90
2014,07,27,06,45,11.90
2014,07,27,06,46,11.90
2014,07,27,06,47,12.00
2014,07,27,06,48,12.00
2014,07,27,06,49,12.00
2014,07,27,06,50,12.00
2014,07,27,06,51,12.00
2014,07,27,06,52,12.00
2014,07,27,06,53,12.00
2014,07,27,06,54,12.10
2014,07,27,06,55,12.10
2014,07,27,06,56,12.10
2014,07,27,06,57,12.10
2014,07,27,06,58,12.20
2014,07,27,06,59,12.20
2014,07,27,07,00,12.20
2014,07,27,07,01,12.30
2014,07,27,07,02,12.30
2014,07,27,07,03,12.30
2014,07,27,07,04,12.30
2014,07,27,07,05,12.40
2014,07,27,07,06,12.40
2014,07,27,07,07,12.40
2014,07,27,07,08,12.40
2014,07,27,07,09,12.40
2014,07,27,07,10,12.40
2014,07,27,07,11,12.40
2014,07,27,07,12,12.50
2014,07,27,07,13,12.50
2014,07,27,07,14,12.50
2014,07,27,07,15,12.50
2014,07,27,07,16,12.60
2014,07,27,07,17,12.60
2014,07,27,07,18,12.60
2014,07,27,07,19,12.60
2014,07,27,07,20,12.60
2014,07,27,07,21,12.60
2014,07,27,07,22,12.70
2014,07,27,07,23,12.70
2014,07,27,07,24,12.70
2014,07,27,07,25,12.70
2014,07,27,07,26,12.70
2014,07,27,07,27,12.70
2014,07,27,07,28,12.70
2014,07,27,07,29,12.70
2014,07,27,07,30,12.70
2014,07,27,07,31,12.80
2014,07,27,07,32,12.80
2014,07,27,07,33,12.80
2014,07,27,07,34,12.80
2014,07,27,07,35,12.80
2014,07,27,07,36,12.80
2014,07,27,07,37,12.90
2014,07,27,07,38,12.90
2014,07,27,07,39,13.00
2014,07,27,07,40,13.00
2014,07,27,07,41,13.10
2014,07,27,07,42,13.10
2014,07,27,07,43,13.20
2014,07,27,07,44,13.20
2014,07,27,07,45,13.30
2014,07,27,07,46,13.30
2014,07,27,07,47,13.30
2014,07,27,07,48,13.40
2014,07,27,07,49,13.50
2014,07,27,07,50,13.50
2014,07,27,07,51,13.60
2014,07,27,07,52,13.70
2014,07,27,07,53,13.80
2014,07,27,07,54,13.80
2014,07,27,07,55,13.90
2014,07,27,07,56,13.90
2014,07,27,07,57,14.00
2014,07,27,07,58,14.00
2014,07,27,07,59,14.10
2014,07,27,08,00,14.10
2014,07,27,08,01,14.20
2014,07,27,08,02,14.30
2014,07,27,08,03,14.30
2014,07,27,08,04,14.40
2014,07,27,08,05,14.50
2014,07,27,08,06,14.60
2014,07,27,08,07,14.70
2014,07,27,08,08,14.70
2014,07,27,08,09,14.80
2014,07,27,08,10,15.00
2014,07,27,08,11,15.00
2014,07,27,08,12,15.00
2014,07,27,08,13,15.10
2014,07,27,08,14,15.30
2014,07,27,08,15,15.40
2014,07,27,08,16,15.50
2014,07,27,08,17,15.70
2014,07,27,08,18,15.80
2014,07,27,08,19,15.90
2014,07,27,08,20,16.10
2014,07,27,08,21,16.20
2014,07,27,08,22,16.30
2014,07,27,08,23,16.30
2014,07,27,08,24,16.40
2014,07,27,08,25,16.50
2014,07,27,08,26,16.60
2014,07,27,08,27,16.70
2014,07,27,08,28,16.70
2014,07,27,08,29,16.80
2014,07,27,08,30,16.80
2014,07,27,08,31,16.90
2014,07,27,08,32,16.90
2014,07,27,08,33,17.00
2014,07,27,08,34,17.10
2014,07,27,08,35,17.20
2014,07,27,08,36,17.40
2014,07,27,08,37,17.50
2014,07,27,08,38,17.70
2014,07,27,08,39,17.80
2014,07,27,08,40,17.90
2014,07,27,08,41,18.10
2014,07,27,08,42,18.20
2014,07,27,08,43,18.30
2014,07,27,08,44,18.40
2014,07,27,08,45,18.50
2014,07,27,08,46,18.50
2014,07,27,08,47,18.60
2014,07,27,08,48,18.70
2014,07,27,08,49,18.80
2014,07,27,08,50,18.90
2014,07,27,08,51,19.00
2014,07,27,08,52,19.10
2014,07,27,08,53,19.20
2014,07,27,08,54,19.30
2014,07,27,08,55,19.40
2014,07,27,08,56,19.50
2014,07,27,08,57,19.60
2014,07,27,08,58,19.70
2014,07,27,08,59,19.80
2014,07,27,09,00,19.90
2014,07,27,09,01,19.90
2014,07,27,09,02,20.00
2014,07,27,09,03,20.10
2014,07,27,09,04,20.20
2014,07,27,09,05,20.20
2014,07,27,09,06,20.20
2014,07,27,09,07,20.30
2014,07,27,09,08,20.30
2014,07,27,09,09,20.40
2014,07,27,09,10,20.50
2014,07,27,09,11,20.50
2014,07,27,09,12,20.60
2014,07,27,09,13,20.60
2014,07,27,09,14,20.60
2014,07,27,09,15,20.60
2014,07,27,09,16,20.70
2014,07,27,09,17,20.70
2014,07,27,09,18,20.70
2014,07,27,09,19,20.70
2014,07,27,09,20,20.70
2014,07,27,09,21,20.70
2014,07,27,09,22,20.70
2014,07,27,09,23,20.70
2014,07,27,09,24,20.70
2014,07,27,09,25,20.70
2014,07,27,09,26,20.70
2014,07,27,09,27,20.70
2014,07,27,09,28,20.70
2014,07,27,09,29,20.70
2014,07,27,09,30,20.70
2014,07,27,09,31,20.70
2014,07,27,09,32,20.80
2014,07,27,09,33,20.80
2014,07,27,09,34,20.90
2014,07,27,09,35,21.00
2014,07,27,09,36,21.10
2014,07,27,09,37,21.10
2014,07,27,09,38,21.10
2014,07,27,09,39,21.20
2014,07,27,09,40,21.20
2014,07,27,09,41,21.20
2014,07,27,09,42,21.30
2014,07,27,09,43,21.30
2014,07,27,09,44,21.30
2014,07,27,09,45,21.30
2014,07,27,09,46,21.30
2014,07,27,09,47,21.30
2014,07,27,09,48,21.20
2014,07,27,09,49,21.20
2014,07,27,09,50,21.20
2014,07,27,09,51,21.10
2014,07,27,09,52,21.10
2014,07,27,09,53,21.00
2014,07,27,09,54,20.90
2014,07,27,09,55,20.90
2014,07,27,09,56,20.90
2014,07,27,09,57,20.90
2014,07,27,09,58,20.90
2014,07,27,09,59,20.90
2014,07,27,10,00,20.90
2014,07,27,10,01,20.90
2014,07,27,10,02,20.90
2014,07,27,10,03,21.00
2014,07,27,10,04,21.00
2014,07,27,10,05,21.00
2014,07,27,10,06,21.10
2014,07,27,10,07,21.10
2014,07,27,10,08,21.10
2014,07,27,10,09,21.20
2014,07,27,10,10,21.20
2014,07,27,10,11,21.30
2014,07,27,10,12,21.40
2014,07,27,10,13,21.40
2014,07,27,10,14,21.40
2014,07,27,10,15,21.40
2014,07,27,10,16,21.40
2014,07,27,10,17,21.40
2014,07,27,10,18,21.50
2014,07,27,10,19,21.50
2014,07,27,10,20,21.60
2014,07,27,10,21,21.60
2014,07,27,10,22,21.60
2014,07,27,10,23,21.60
2014,07,27,10,24,21.60
2014,07,27,10,25,21.60
2014,07,27,10,26,21.60
2014,07,27,10,27,21.60
2014,07,27,10,28,21.60
2014,07,27,10,29,21.60
2014,07,27,10,30,21.60
2014,07,27,10,31,21.70
2014,07,27,10,32,21.60
2014,07,27,10,33,21.60
2014,07,27,10,34,21.60
2014,07,27,10,35,21.60
2014,07,27,10,36,21.60
2014,07,27,10,37,21.70
2014,07,27,10,38,21.70
2014,07,27,10,39,21.70
2014,07,27,10,40,21.70
2014,07,27,10,41,21.70
2014,07,27,10,42,21.80
2014,07,27,10,43,21.80
2014,07,27,10,44,21.80
2014,07,27,10,45,21.80
2014,07,27,10,46,21.80
2014,07,27,10,47,21.70
2014,07,27,10,48,21.70
2014,07,27,10,49,21.70
2014,07,27,10,50,21.70
2014,07,27,10,51,21.80
2014,07,27,10,52,21.80
2014,07,27,10,53,21.80
2014,07,27,10,54,21.80
2014,07,27,10,55,21.80
2014,07,27,10,56,21.80
2014,07,27,10,57,21.80
2014,07,27,10,58,21.80
2014,07,27,10,59,21.80
2014,07,27,11,00,21.80
2014,07,27,11,01,21.90
2014,07,27,11,02,21.90
2014,07,27,11,03,22.00
2014,07,27,11,04,22.00
2014,07,27,11,05,22.10
2014,07,27,11,06,22.20
2014,07,27,11,07,22.20
2014,07,27,11,08,22.20
2014,07,27,11,09,22.10
2014,07,27,11,10,22.00
2014,07,27,11,11,22.00
2014,07,27,11,12,21.90
2014,07,27,11,13,21.90
2014,07,27,11,14,21.90
2014,07,27,11,15,21.90
2014,07,27,11,16,21.90
2014,07,27,11,17,21.90
2014,07,27,11,18,21.90
2014,07,27,11,19,21.90
2014,07,27,11,20,21.90
2014,07,27,11,21,21.90
2014,07,27,11,22,22.00
2014,07,27,11,23,22.00
2014,07,27,11,24,22.00
2014,07,27,11,25,22.00
2014,07,27,11,26,22.00
2014,07,27,11,27,22.00
2014,07,27,11,28,22.10
2014,07,27,11,29,22.10
2014,07,27,11,30,22.10
2014,07,27,11,31,22.10
2014,07,27,11,32,22.10
2014,07,27,11,33,22.10
2014,07,27,11,34,22.20
2014,07,27,11,35,22.20
2014,07,27,11,36,22.30
2014,07,27,11,37,22.30
2014,07,27,11,38,22.40
2014,07,27,11,39,22.40
2014,07,27,11,40,22.50
2014,07,27,11,41,22.60
2014,07,27,11,42,22.60
2014,07,27,11,43,22.70
2014,07,27,11,44,22.70
2014,07,27,11,45,22.80
2014,07,27,11,46,22.90
2014,07,27,11,47,23.00
2014,07,27,11,48,23.10
2014,07,27,11,49,23.20
2014,07,27,11,50,23.20
2014,07,27,11,51,23.20
2014,07,27,11,52,23.20
2014,07,27,11,53,23.20
2014,07,27,11,54,23.20
2014,07,27,11,55,23.10
2014,07,27,11,56,23.10
2014,07,27,11,57,23.10
2014,07,27,11,58,23.20
2014,07,27,11,59,23.10
2014,07,27,12,00,23.10
2014,07,27,12,01,23.10
2014,07,27,12,02,23.10
2014,07,27,12,03,23.10
2014,07,27,12,04,23.10
2014,07,27,12,05,23.10
2014,07,27,12,06,23.20
2014,07,27,12,07,23.20
2014,07,27,12,08,23.20
2014,07,27,12,09,23.10
2014,07,27,12,10,23.00
2014,07,27,12,11,22.90
2014,07,27,12,12,22.80
2014,07,27,12,13,22.80
2014,07,27,12,14,22.70
2014,07,27,12,15,22.70
2014,07,27,12,16,22.60
2014,07,27,12,17,22.60
2014,07,27,12,18,22.60
2014,07,27,12,19,22.60
2014,07,27,12,20,22.70
2014,07,27,12,21,22.80
2014,07,27,12,22,22.80
2014,07,27,12,23,22.90
2014,07,27,12,24,23.00
2014,07,27,12,25,23.00
2014,07,27,12,26,23.00
2014,07,27,12,27,23.00
2014,07,27,12,28,22.90
2014,07,27,12,29,22.90
2014,07,27,12,30,22.90
2014,07,27,12,31,23.00
2014,07,27,12,32,23.10
2014,07,27,12,33,23.10
2014,07,27,12,34,23.20
2014,07,27,12,35,23.20
2014,07,27,12,36,23.30
2014,07,27,12,37,23.40
2014,07,27,12,38,23.50
2014,07,27,12,39,23.60
2014,07,27,12,40,23.60
2014,07,27,12,41,23.70
2014,07,27,12,42,23.70
2014,07,27,12,43,23.70
2014,07,27,12,44,23.70
2014,07,27,12,45,23.70
2014,07,27,12,46,23.80
2014,07,27,12,47,23.80
2014,07,27,12,48,23.80
2014,07,27,12,49,23.80
2014,07,27,12,50,23.90
2014,07,27,12,51,23.90
2014,07,27,12,52,23.90
2014,07,27,12,53,24.00
2014,07,27,12,54,24.00
2014,07,27,12,55,24.00
2014,07,27,12,56,24.00
2014,07,27,12,57,24.00
2014,07,27,12,58,24.10
2014,07,27,12,59,24.20
2014,07,27,13,00,24.30
2014,07,27,13,01,24.30
2014,07,27,13,02,24.40
2014,07,27,13,03,24.60
2014,07,27,13,04,24.60
2014,07,27,13,05,24.70
2014,07,27,13,06,24.70
2014,07,27,13,07,24.70
2014,07,27,13,08,24.70
2014,07,27,13,09,24.60
2014,07,27,13,10,24.60
2014,07,27,13,11,24.40
2014,07,27,13,12,24.30
2014,07,27,13,13,24.20
2014,07,27,13,14,24.10
2014,07,27,13,15,24.00
2014,07,27,13,16,24.00
2014,07,27,13,17,24.00
2014,07,27,13,18,23.90
2014,07,27,13,19,23.70
2014,07,27,13,20,23.40
2014,07,27,13,21,23.30
2014,07,27,13,22,23.20
2014,07,27,13,23,23.10
2014,07,27,13,24,23.00
2014,07,27,13,25,22.90
2014,07,27,13,26,22.90
2014,07,27,13,27,22.80
2014,07,27,13,28,22.80
2014,07,27,13,29,22.70
2014,07,27,13,30,22.80
2014,07,27,13,31,22.80
2014,07,27,13,32,22.80
2014,07,27,13,33,22.80
2014,07,27,13,34,22.70
2014,07,27,13,35,22.50
2014,07,27,13,36,22.50
2014,07,27,13,37,22.40
2014,07,27,13,38,22.50
2014,07,27,13,39,22.60
2014,07,27,13,40,22.60
2014,07,27,13,41,22.50
2014,07,27,13,42,22.40
2014,07,27,13,43,22.40
2014,07,27,13,44,22.40
2014,07,27,13,45,22.30
2014,07,27,13,46,22.30
2014,07,27,13,47,22.40
2014,07,27,13,48,22.40
2014,07,27,13,49,22.50
2014,07,27,13,50,22.50
2014,07,27,13,51,22.60
2014,07,27,13,52,22.60
2014,07,27,13,53,22.70
2014,07,27,13,54,22.70
2014,07,27,13,55,22.90
2014,07,27,13,56,23.00
2014,07,27,13,57,23.10
2014,07,27,13,58,23.10
2014,07,27,13,59,23.20
2014,07,27,14,00,23.20
2014,07,27,14,01,23.30
2014,07,27,14,02,23.30
2014,07,27,14,03,23.30
2014,07,27,14,04,23.30
2014,07,27,14,05,23.30
2014,07,27,14,06,23.40
2014,07,27,14,07,23.40
2014,07,27,14,08,23.50
2014,07,27,14,09,23.60
2014,07,27,14,10,23.70
2014,07,27,14,11,23.80
2014,07,27,14,12,23.90
2014,07,27,14,13,23.90
2014,07,27,14,14,24.00
2014,07,27,14,15,24.10
2014,07,27,14,16,24.20
2014,07,27,14,17,24.30
2014,07,27,14,18,24.30
2014,07,27,14,19,24.40
2014,07,27,14,20,24.50
2014,07,27,14,21,24.60
2014,07,27,14,22,24.70
2014,07,27,14,23,24.80
2014,07,27,14,24,24.70
2014,07,27,14,25,24.60
2014,07,27,14,26,24.50
2014,07,27,14,27,24.30
2014,07,27,14,28,24.20
2014,07,27,14,29,24.10
2014,07,27,14,30,24.00
2014,07,27,14,31,24.00
2014,07,27,14,32,24.10
2014,07,27,14,33,24.10
2014,07,27,14,34,24.20
2014,07,27,14,35,24.20
2014,07,27,14,36,24.30
2014,07,27,14,37,24.50
2014,07,27,14,38,24.60
2014,07,27,14,39,24.70
2014,07,27,14,40,24.90
2014,07,27,14,41,25.00
2014,07,27,14,42,25.20
2014,07,27,14,43,25.30
2014,07,27,14,44,25.40
2014,07,27,14,45,25.50
2014,07,27,14,46,25.60
2014,07,27,14,47,25.60
2014,07,27,14,48,25.70
2014,07,27,14,49,25.70
2014,07,27,14,50,25.60
2014,07,27,14,51,25.60
2014,07,27,14,52,25.60
2014,07,27,14,53,25.60
2014,07,27,14,54,25.60
2014,07,27,14,55,25.60
2014,07,27,14,56,25.60
2014,07,27,14,57,25.60
2014,07,27,14,58,25.60
2014,07,27,14,59,25.60
2014,07,27,15,00,25.70
2014,07,27,15,01,25.70
2014,07,27,15,02,25.80
2014,07,27,15,03,25.90
2014,07,27,15,04,26.00
2014,07,27,15,05,26.10
2014,07,27,15,06,26.10
2014,07,27,15,07,26.20
2014,07,27,15,08,26.30
2014,07,27,15,09,26.20
2014,07,27,15,10,26.00
2014,07,27,15,11,25.90
2014,07,27,15,12,25.90
2014,07,27,15,13,25.70
2014,07,27,15,14,25.50
2014,07,27,15,15,25.40
2014,07,27,15,16,25.30
2014,07,27,15,17,25.30
2014,07,27,15,18,25.20
2014,07,27,15,19,25.20
2014,07,27,15,20,25.10
2014,07,27,15,21,25.00
2014,07,27,15,22,24.90
2014,07,27,15,23,24.90
2014,07,27,15,24,24.90
2014,07,27,15,25,25.00
2014,07,27,15,26,25.00
2014,07,27,15,27,24.80
2014,07,27,15,28,24.70
2014,07,27,15,29,24.70
2014,07,27,15,30,24.70
2014,07,27,15,31,24.60
2014,07,27,15,32,24.60
2014,07,27,15,33,24.70
2014,07,27,15,34,24.70
2014,07,27,15,35,24.70
2014,07,27,15,36,24.70
2014,07,27,15,37,24.70
2014,07,27,15,38,24.80
2014,07,27,15,39,24.80
2014,07,27,15,40,24.70
2014,07,27,15,41,24.60
2014,07,27,15,42,24.40
2014,07,27,15,43,24.30
2014,07,27,15,44,24.10
2014,07,27,15,45,24.00
2014,07,27,15,46,23.90
2014,07,27,15,47,23.90
2014,07,27,15,48,23.90
2014,07,27,15,49,24.00
2014,07,27,15,50,24.00
2014,07,27,15,51,23.90
2014,07,27,15,52,24.00
2014,07,27,15,53,24.00
2014,07,27,15,54,24.10
2014,07,27,15,55,24.10
2014,07,27,15,56,24.00
2014,07,27,15,57,23.90
2014,07,27,15,58,23.90
2014,07,27,15,59,23.90
2014,07,27,16,00,23.90
2014,07,27,16,01,23.90
2014,07,27,16,02,24.00
2014,07,27,16,03,24.10
2014,07,27,16,04,24.10
2014,07,27,16,05,24.10
2014,07,27,16,06,24.10
2014,07,27,16,07,24.30
2014,07,27,16,08,24.50
2014,07,27,16,09,24.50
2014,07,27,16,10,24.40
2014,07,27,16,11,24.40
2014,07,27,16,12,24.40
2014,07,27,16,13,24.40
2014,07,27,16,14,24.30
2014,07,27,16,15,24.30
2014,07,27,16,16,24.20
2014,07,27,16,17,24.20
2014,07,27,16,18,24.20
2014,07,27,16,19,24.10
2014,07,27,16,20,24.10
2014,07,27,16,21,24.00
2014,07,27,16,22,23.90
2014,07,27,16,23,23.90
2014,07,27,16,24,24.00
2014,07,27,16,25,24.00
2014,07,27,16,26,24.10
2014,07,27,16,27,24.20
2014,07,27,16,28,24.30
2014,07,27,16,29,24.40
2014,07,27,16,30,24.40
2014,07,27,16,31,24.50
2014,07,27,16,32,24.50
2014,07,27,16,33,24.50
2014,07,27,16,34,24.40
2014,07,27,16,35,24.40
2014,07,27,16,36,24.40
2014,07,27,16,37,24.40
2014,07,27,16,38,24.40
2014,07,27,16,39,24.40
2014,07,27,16,40,24.40
2014,07,27,16,41,24.30
2014,07,27,16,42,24.20
2014,07,27,16,43,24.20
2014,07,27,16,44,24.30
2014,07,27,16,45,24.40
2014,07,27,16,46,24.50
2014,07,27,16,47,24.60
2014,07,27,16,48,24.70
2014,07,27,16,49,24.70
2014,07,27,16,50,24.70
2014,07,27,16,51,24.60
2014,07,27,16,52,24.60
2014,07,27,16,53,24.60
2014,07,27,16,54,24.60
2014,07,27,16,55,24.60
2014,07,27,16,56,24.60
2014,07,27,16,57,24.70
2014,07,27,16,58,24.80
2014,07,27,16,59,24.90
2014,07,27,17,00,24.90
2014,07,27,17,01,24.90
2014,07,27,17,02,24.90
2014,07,27,17,03,24.90
2014,07,27,17,04,24.80
2014,07,27,17,05,24.80
2014,07,27,17,06,24.80
2014,07,27,17,07,24.80
2014,07,27,17,08,24.80
2014,07,27,17,09,24.80
2014,07,27,17,10,24.80
2014,07,27,17,11,24.80
2014,07,27,17,12,24.90
2014,07,27,17,13,24.90
2014,07,27,17,14,25.00
2014,07,27,17,15,25.00
2014,07,27,17,16,25.00
2014,07,27,17,17,24.90
2014,07,27,17,18,24.80
2014,07,27,17,19,24.80